Location: Complexul Astronomic Baia Mare
(47.6577°N, 23.5639°E)
Time: 05:47:24
(UTC+03:00)

ISS - Pass Details

Date: 13 March 2017
Orbit: 399 x 409 km, 51.6° (Epoch: 30 March)

Event Time Altitude Azimuth Distance (km) Brightness Sun altitude
Exits shadow 04:33:54 43° 18° (NNE) 591 -2.8 -22.2°
Drops below altitude 10° 04:36:39 10° 64° (ENE) 1,481 0.2 -21.7°
Sets 04:38:47 0° 71° (ENE) 2,344 1.6 -21.4°
